Simultaneous Nadir Overpasses (SNOs) Predictions

Prediction of SNOs between GOES-17 and TERRA Satellite Orbit:

Table of predicted SNOs for the next 14.0 days since TLE Epoch: 3/20/2021
Index Date Time (GOES-17) GOES-17 Lat,Lon TERRA Lat,Lon Distance(km) Time Diff (sec)
1 03/21/2021 07:41:48 -0.04,-137.19 -0.17,-137.81 70.68 80
2 03/23/2021 07:26:55 -0.04,-137.17 0.46,-134.85 263.29 80
3 03/23/2021 19:48:10 0.04,-137.17 0.65,-140.01 323.18 80
4 03/25/2021 19:38:37 0.03,-137.14 0.02,-137.05 10.07 80
5 03/27/2021 19:26:24 0.03,-137.11 -0.61,-134.09 342.89 80
6 03/28/2021 07:47:48 -0.03,-137.10 -0.48,-139.29 248.98 80
7 03/30/2021 07:32:54 -0.03,-137.06 0.10,-136.32 83.26 80
8 04/01/2021 07:20:41 -0.03,-137.01 0.74,-133.37 414.53 80
9 04/01/2021 19:41:55 0.03,-137.00 0.36,-138.52 172.86 80
